Simultaneous Nadir Overpasses (SNOs) Predictions

Prediction of SNOs between NOAA-19 and METOP-C Satellite Orbit:

Table of predicted SNOs for the next 14.0 days since TLE Epoch: 12/26/2020
Index Date (NOAA-19) Time (NOAA-19) Lat,Lon (NOAA-19) SZA (NOAA-19 ) Date (METOP-C) Time (METOP-C) Lat,Lon (METOP-C) SZA (METOP-C ) Distance(km) Time Diff (sec)
1 01/01/2021 17:02:23 -80.32, 130.36 75.94 01/01/2021 17:03:27 -80.31, 130.37 75.93 0.44 64
2 01/01/2021 17:53:25 80.30, -62.14 104.06 01/01/2021 17:54:08 80.32, -62.28 104.08 3.08 43
3 01/01/2021 18:44:23 -80.31, 105.01 75.95 01/01/2021 18:44:49 -80.30, 104.91 75.95 2.02 26
4 01/01/2021 19:35:26 80.31, -87.81 104.05 01/01/2021 19:35:30 80.31, -87.75 104.05 1.52 4
5 01/01/2021 20:26:23 -80.30, 79.66 75.95 01/01/2021 20:26:10 -80.32, 79.76 75.93 2.85 13
6 01/01/2021 21:17:26 80.30,-113.16 104.05 01/01/2021 21:16:52 80.30,-113.21 104.03 1.37 34
7 01/01/2021 22:08:23 -80.29, 54.31 75.96 01/01/2021 22:07:32 -80.31, 54.30 75.95 1.97 51



Historial Predications of SNOs between NOAA-19 and METOP-C
